Vertical_Velocity
-6 -7 -8 -9 -8 -7 -5 -4 -3 -4 -4 -5 -5 -5 -5 -4 -3 -2 -1 -2 -5 -6 -6 -5 -5 -5 -4 -4 -6 -7 -7 -4 -1 3 5 6 6 6 5 4 5 6 7 8 6 4 2 1 3 4 5 6 6 6 5 4 3 2 2 1 0 1 2 3 3 3 3 2 2
-6 -6 -7 -7 -6 -5 -4 -2 -3 -4 -4 -5 -5 -5 -4 -4 -3 -2 -2 -3 -5 -6 -5 -4 -4 -4 -4 -4 -5 -4 -3 -2 1 4 6 8 8 6 5 4 4 5 6 8 8 7 4 2 2 3 5 6 7 6 6 4 3 2 1 -1 -0 1 2 3 4 4 4 3 2
-6 -6 -6 -5 -4 -4 -3 -3 -3 -4 -4 -5 -4 -4 -4 -3 -3 -2 -2 -3 -4 -4 -4 -4 -4 -5 -5 -5 -4 -1 0 0 1 3 4 5 4 4 4 3 3 3 4 5 6 7 6 3 2 2 4 6 7 7 6 5 2 1 -0 -1 0 2 3 4 5 5 4 4 3
-6 -6 -5 -4 -3 -2 -2 -3 -4 -4 -4 -4 -4 -3 -2 -2 -2 -2 -3 -4 -4 -4 -3 -4 -5 -6 -6 -5 -2 -0 1 0 3 3 2 2 2 3 3 3 2 1 0 1 2 3 4 2 0 1 2 5 6 6 6 4 1 -1 -2 -1 1 3 4 6 6 5 4 3 3
-4 -3 -2 -2 -2 -2 -2 -3 -4 -4 -4 -3 -3 -2 -1 -1 -1 -2 -3 -4 -4 -2 -2 -3 -4 -5 -4 -1 -0 -0 -1 0 6 5 2 1 2 2 3 3 2 0 -1 -2 -2 -1 -1 -1 -1 -1 1 4 4 4 3 2 -1 -2 -1 0 2 4 6 6 5 4 3 2 2
-4 -2 -1 -1 -1 -2 -3 -3 -3 -3 -3 -3 -2 -2 -1 -1 -1 -2 -4 -5 -3 -2 -2 -3 -3 -3 -1 0 -1 -3 -2 4 9 7 2 2 2 3 3 3 2 1 -1 -2 -4 -4 -4 -4 -4 -2 -0 1 3 3 1 -2 -2 -1 1 3 4 5 5 4 3 2 1 1 0
-3 -2 -1 -1 -2 -2 -2 -2 -2 -2 -2 -2 -2 -2 -2 -1 -2 -3 -4 -3 -2 -2 -2 -2 -2 -2 -1 -3 -5 -5 -1 8 9 5 1 1 3 4 5 5 4 2 0 -2 -4 -5 -6 -7 -6 -4 -2 -1 -1 -2 -3 -3 -1 1 3 5 5 4 3 2 2 2 1 -1 -2
-0 0 0 -1 -1 -2 -2 -3 -2 -2 -2 -3 -3 -3 -3 -2 -3 -3 -2 -2 -2 -3 -3 -2 -2 -1 -1 -3 -5 -4 0 8 6 1 -2 -1 1 4 5 5 4 3 1 -2 -4 -6 -8 -9 -9 -8 -7 -6 -4 -2 0 2 3 4 5 6 4 2 1 1 1 0 -2 -4 -4
0 0 0 -0 -1 -2 -2 -2 -2 -3 -3 -3 -3 -3 -2 -2 -3 -3 -3 -3 -4 -3 -2 -1 -2 -1 -1 -2 -3 -2 1 7 4 -1 -5 -3 -1 1 2 3 3 2 1 -2 -4 -5 -6 -7 -6 -4 0 4 6 6 6 5 4 4 5 4 3 1 -0 0 -0 -2 -5 -4 -3
-0 -1 -1 -2 -2 -2 -2 -2 -2 -3 -3 -4 -3 -2 -1 -1 -1 -2 -3 -3 -3 -2 -1 -1 -3 -3 -2 -2 -3 -2 1 7 6 -0 -5 -4 -1 -0 -0 0 1 1 0 -1 -1 -0 1 2 4 6 8 9 8 6 5 4 3 3 2 1 -0 -0 -0 1 0 -0 -0 1 2
-1 -2 -3 -3 -3 -3 -3 -3 -3 -3 -3 -3 -2 -1 -0 -1 -1 -1 -2 -2 -2 -1 -1 -2 -4 -5 -4 -3 -3 -2 1 6 7 2 -3 -3 -1 -0 -0 0 1 1 -0 -0 1 4 6 9 10 10 9 8 6 4 3 2 1 0 -0 -0 1 3 4 5 5 6 7 7 6
-2 -3 -4 -4 -4 -3 -3 -3 -3 -3 -3 -4 -3 -2 -1 -1 -1 -1 -1 -2 -2 -1 -1 -2 -5 -5 -5 -3 -3 -2 -0 3 6 4 1 -0 1 1 0 -0 2 1 0 -0 2 4 7 9 10 9 7 6 3 1 0 0 0 1 3 5 7 8 9 9 9 9 8 8 6
-3 -4 -4 -4 -4 -4 -3 -3 -3 -3 -4 -4 -4 -3 -2 -1 -2 -2 -2 -2 -2 -2 -2 -2 -5 -5 -4 -2 -3 -2 -1 2 4 5 5 4 5 3 1 1 6 7 5 3 4 5 7 8 6 5 2 0 -1 -1 -0 1 3 5 8 10 10 10 9 8 7 6 6 5 4
-3 -4 -4 -4 -5 -4 -4 -3 -3 -4 -4 -4 -4 -4 -3 -2 -2 -2 -2 -2 -2 -3 -3 -3 -4 -4 -4 -2 -2 -1 0 2 3 4 5 6 6 4 3 7 14 17 17 14 11 9 7 5 3 1 0 -1 -0 0 1 2 5 8 9 9 8 6 6 5 5 4 4 3 1
-4 -4 -4 -5 -5 -4 -4 -4 -4 -4 -4 -5 -5 -5 -4 -3 -3 -2 -2 -2 -2 -3 -3 -3 -4 -4 -3 -2 -0 0 1 2 2 2 3 3 2 1 3 10 21 26 27 24 19 14 10 6 5 4 3 3 3 4 4 5 7 8 7 5 4 4 4 4 4 3 2 2 0
-4 -4 -4 -5 -5 -4 -4 -4 -4 -4 -5 -5 -5 -5 -5 -4 -3 -2 -2 -2 -2 -3 -3 -4 -4 -4 -4 -3 -1 0 1 1 0 -0 -1 -0 -2 -4 -2 6 20 27 28 24 21 17 14 11 9 7 6 6 6 7 8 9 8 7 5 3 2 2 3 3 2 1 2 3 6
-3 -4 -4 -4 -4 -4 -4 -4 -4 -4 -5 -5 -5 -6 -6 -5 -4 -3 -2 -2 -2 -2 -3 -4 -4 -4 -5 -4 -2 -2 -1 -1 -1 -2 -3 -3 -3 -4 -4 -1 11 18 20 18 16 15 14 13 11 9 8 7 8 8 9 9 8 6 4 2 2 2 2 1 0 0 1 3 12
-3 -4 -4 -4 -4 -4 -4 -4 -4 -4 -5 -5 -6 -6 -6 -5 -4 -3 -2 -2 -2 -2 -3 -3 -3 -4 -4 -5 -4 -3 -3 -2 -2 -2 -2 -2 -1 -1 -1 -3 2 5 8 10 10 11 11 11 11 10 10 9 8 8 8 7 6 4 3 2 2 1 1 0 0 -0 -0 0 6
-3 -4 -4 -4 -4 -4 -4 -4 -5 -5 -5 -5 -5 -5 -5 -5 -4 -3 -2 -2 -2 -3 -3 -3 -3 -3 -4 -4 -4 -4 -3 -2 -2 -1 -1 -1 -1 -1 -0 -0 -2 -2 -1 2 4 6 7 8 9 10 9 9 8 7 6 6 5 4 3 3 2 2 1 1 1 1 0 0 1
-4 -4 -4 -4 -4 -5 -5 -5 -6 -6 -5 -5 -5 -4 -4 -4 -4 -3 -2 -2 -2 -3 -3 -3 -3 -3 -3 -3 -3 -4 -4 -4 -2 -1 -1 -1 -2 -2 -1 1 -1 -2 -2 -0 1 2 4 5 6 7 7 7 6 6 6 5 5 4 3 3 2 2 1 1 1 1 1 0 0
-4 -4 -4 -4 -4 -5 -6 -6 -6 -6 -5 -5 -4 -4 -4 -4 -3 -3 -3 -3 -2 -2 -2 -2 -3 -4 -4 -4 -3 -4 -4 -4 -3 -2 -1 -1 -2 -2 -2 0 0 -1 -2 -2 0 1 2 3 3 4 4 4 4 4 4 4 4 3 3 1 1 0 0 0 1 1 1 1 1
-4 -4 -4 -4 -4 -5 -5 -6 -6 -5 -4 -4 -4 -4 -3 -3 -3 -3 -3 -2 -1 -0 -0 -1 -3 -4 -5 -5 -4 -4 -4 -4 -3 -2 -1 -0 -1 -2 -2 -1 -0 -2 -5 -5 -2 1 2 2 1 1 0 0 0 1 1 2 2 2 2 1 1 0 -0 -1 -0 -0 1 1 1
-4 -4 -4 -4 -4 -4 -5 -5 -5 -4 -4 -4 -3 -3 -3 -3 -2 -2 -1 -1 -1 -0 0 -0 -2 -3 -4 -4 -4 -3 -3 -3 -3 -3 -2 -1 -1 -2 -3 -3 -2 -5 -7 -8 -5 -2 1 1 0 -0 -1 -2 -3 -3 -2 -2 -1 1 2 3 2 2 1 0 -0 -0 0 1 2
-4 -4 -4 -4 -4 -4 -4 -4 -4 -4 -4 -4 -4 -4 -4 -3 -2 -1 -1 -1 -1 -0 0 1 -0 -1 -2 -3 -3 -3 -3 -2 -3 -3 -3 -3 -2 -4 -5 -6 -5 -7 -9 -9 -7 -4 -2 -0 -1 -1 -1 -2 -3 -4 -4 -4 -4 -2 0 2 3 4 4 4 3 2 2 1 2
-3 -4 -4 -4 -4 -4 -3 -3 -3 -4 -4 -5 -5 -4 -4 -3 -3 -2 -2 -1 -0 0 1 1 1 0 -0 -1 -2 -2 -2 -2 -3 -3 -3 -3 -3 -4 -6 -8 -9 -10 -11 -9 -7 -6 -4 -2 -1 -1 -1 -1 -2 -2 -2 -3 -4 -4 -3 -1 1 3 4 4 4 4 4 4 4
-3 -3 -4 -4 -4 -4 -3 -2 -3 -4 -4 -4 -4 -4 -4 -4 -4 -3 -2 -1 0 0 1 1 1 1 0 -0 -1 -1 -2 -3 -3 -3 -3 -3 -3 -4 -5 -7 -10 -11 -10 -6 -6 -6 -6 -5 -3 -2 -2 -1 -2 -1 -1 -1 -2 -3 -4 -3 -2 -1 1 1 2 2 3 5 7
-2 -3 -4 -4 -4 -3 -3 -2 -2 -3 -3 -3 -4 -4 -5 -5 -4 -3 -2 -1 -0 0 1 2 1 0 -0 -0 -0 -1 -1 -2 -2 -3 -3 -2 -2 -2 -3 -5 -7 -4 -0 2 -2 -5 -6 -6 -6 -5 -4 -4 -3 -3 -3 -2 -3 -3 -3 -3 -3 -3 -2 -2 -2 -2 -1 1 6
-2 -3 -4 -4 -4 -3 -2 -2 -2 -2 -2 -3 -4 -5 -5 -4 -4 -3 -3 -2 -1 0 1 1 -0 -1 -1 -1 -1 -1 -1 -1 -2 -2 -1 -1 -1 -1 -1 -1 -1 5 11 10 1 -3 -5 -6 -6 -6 -6 -6 -6 -5 -5 -5 -5 -4 -4 -4 -4 -4 -4 -5 -5 -5 -5 -4 0
-2 -3 -4 -4 -3 -3 -2 -2 -1 -1 -2 -3 -4 -4 -4 -4 -4 -3 -3 -2 -2 -1 -1 -1 -1 -1 -1 -1 -1 -1 -1 -1 -1 -1 -0 0 0 -0 -1 -0 2 12 20 20 3 -2 -3 -4 -5 -6 -6 -7 -7 -7 -7 -7 -6 -6 -6 -5 -5 -5 -5 -6 -6 -7 -7 -6 -4
-2 -3 -3 -3 -2 -2 -2 -2 -2 -2 -2 -2 -3 -3 -3 -3 -3 -3 -3 -3 -4 -4 -3 -2 -0 0 0 -0 -1 -1 -0 -1 -1 -1 -1 -0 -0 -0 -1 -1 -0 11 24 31 7 -2 -3 -3 -4 -4 -5 -6 -6 -7 -7 -7 -8 -8 -8 -7 -7 -6 -5 -5 -6 -6 -7 -7 -7
-2 -2 -2 -1 -1 -1 -2 -2 -2 -2 -2 -2 -2 -2 -2 -2 -3 -3 -4 -4 -4 -3 -2 -1 0 1 1 1 0 -0 -1 -1 -1 -1 -2 -2 -2 -1 -1 -1 -1 4 16 31 16 4 -2 -2 -3 -3 -4 -4 -4 -5 -6 -7 -7 -7 -8 -8 -7 -7 -6 -5 -5 -5 -6 -7 -8
-2 -2 -1 -1 -0 -1 -1 -2 -2 -2 -2 -2 -2 -1 -1 -2 -2 -3 -4 -3 -2 -2 -1 -1 -1 -0 1 1 1 0 -0 -1 -1 -1 -2 -2 -3 -3 -2 -1 -1 -1 4 17 23 13 -0 -2 -2 -2 -3 -3 -3 -3 -4 -5 -5 -5 -6 -6 -6 -7 -7 -6 -6 -5 -5 -6 -7
-1 -1 -1 -0 0 -0 -0 -1 -1 -2 -2 -2 -2 -1 -1 -0 -1 -1 -1 -2 -2 -2 -2 -3 -2 -2 -2 -1 -1 -0 -0 -1 -1 -1 -2 -2 -2 -3 -4 -3 -2 -3 -2 3 20 18 8 -1 -1 -1 -2 -3 -2 -2 -2 -2 -3 -3 -3 -4 -4 -5 -6 -6 -6 -6 -5 -5 -6
-1 -1 -1 -0 0 0 0 -0 -1 -1 -2 -2 -2 -1 -1 -0 -0 -0 -0 -1 -2 -2 -3 -2 -2 -2 -3 -3 -2 -2 -1 -0 -0 -1 -1 -2 -2 -2 -3 -3 -3 -4 -4 -3 10 18 16 0 -1 -1 -0 -2 -2 -2 -1 -1 -1 -2 -2 -2 -2 -3 -3 -4 -4 -4 -4 -5 -5
-1 -1 -1 -0 -0 0 0 0 -0 -1 -1 -1 -1 -1 -1 -0 -0 -0 -1 -1 -2 -2 -1 -1 0 0 -0 -1 -2 -2 -1 -0 0 -0 -1 -2 -2 -2 -2 -2 -3 -3 -4 -5 0 13 20 9 0 -1 -0 0 -1 -1 -1 -0 -0 -0 -1 -1 -1 -1 -1 -2 -3 -3 -3 -4 -4
-2 -1 -1 -1 -1 -0 0 1 0 -1 -1 -1 -1 -0 -0 -1 -1 -1 -1 -1 -1 -1 -1 -0 1 1 2 1 -1 -2 -2 -2 -2 -1 -1 -1 -2 -2 -2 -2 -2 -3 -4 -5 -5 6 18 24 6 -2 -2 1 1 -0 -1 -0 0 1 0 0 0 0 -0 -0 -1 -2 -2 -2 -3
-2 -2 -1 -1 -1 -1 -0 0 0 -0 -1 -1 -1 -1 -1 -1 -2 -1 -1 -1 -1 -2 -2 -2 -1 -0 0 0 -1 -2 -4 -4 -3 -2 -2 -2 -2 -2 -2 -2 -2 -3 -4 -5 -7 -1 12 32 13 1 -4 -0 1 0 -1 -1 -0 0 1 1 0 -0 -0 -0 -1 -1 -1 -1 -2
-3 -2 -2 -2 -1 -1 -1 -1 -0 -0 -0 -1 -1 -1 -1 -1 -1 -1 -2 -2 -3 -3 -3 -3 -3 -2 -1 -1 -1 -1 -2 -3 -3 -3 -3 -2 -2 -2 -2 -2 -2 -2 -3 -5 -7 -5 5 28 21 8 -2 -3 0 1 -0 -2 -2 -1 0 1 1 0 -0 -1 -1 -1 -1 -1 -1
-4 -4 -3 -2 -2 -1 -1 -1 -1 -1 -1 -1 -1 -1 -1 -0 -1 -1 -2 -4 -4 -4 -4 -4 -4 -3 -2 -2 -1 -1 -0 -1 -1 -2 -2 -2 -2 -2 -2 -2 -1 -1 -1 -3 -5 -7 -1 16 27 18 3 -3 -1 1 1 -1 -2 -1 -1 0 0 0 -0 -1 -1 -1 -1 -1 -0
-4 -4 -4 -3 -2 -1 -1 -1 -1 -1 -1 -2 -1 -1 -0 -0 -0 -1 -2 -3 -3 -4 -3 -3 -3 -3 -3 -3 -2 -1 -0 0 0 -0 -1 -1 -1 -1 -1 -1 -0 0 0 -0 -3 -6 -7 -2 20 23 14 -0 -2 -1 1 -0 -2 -2 -2 -2 -2 -1 -1 -1 -1 -0 -0 -0 0
-3 -3 -3 -3 -2 -2 -1 -1 -1 -1 -2 -2 -2 -2 -1 -1 -1 -1 -1 -1 -2 -2 -2 -2 -2 -3 -3 -3 -2 -1 -0 0 0 0 -0 -0 -0 -0 -0 -0 -0 -0 0 0 -1 -4 -8 -13 1 18 24 8 -1 -3 -1 -0 -2 -3 -4 -4 -4 -3 -2 -1 -0 0 0 0 0
Height
3030 3026 3021 3017 3013 3009 3005 3001 2997 2993 2989 2985 2981 2977 2974 2971 2968 2965 2962 2960 2957 2955 2953 2951 2949 2947 2945 2942 2940 2937 2935 2932 2929 2926 2923 2920 2916 2913 2910 2906 2904 2901 2899 2896 2894 2892 2891 2890 2889 2889 2889 2890 2891 2892 2893 2893 2894 2894 2895 2895 2896 2896 2897 2899 2899 2900 2900 2900 2900
3029 3025 3021 3016 3012 3008 3004 3000 2996 2992 2988 2984 2980 2976 2973 2970 2967 2965 2962 2960 2958 2956 2954 2952 2950 2948 2945 2942 2940 2937 2935 2932 2929 2925 2922 2918 2914 2911 2907 2905 2902 2900 2898 2896 2894 2892 2891 2889 2888 2888 2889 2890 2891 2891 2892 2892 2893 2893 2894 2894 2895 2896 2897 2898 2899 2899 2899 2900 2899
3028 3024 3020 3016 3011 3007 3003 2999 2995 2991 2987 2983 2979 2976 2973 2970 2967 2964 2962 2960 2958 2956 2954 2952 2950 2948 2945 2942 2940 2938 2935 2931 2928 2924 2920 2916 2912 2908 2905 2902 2900 2898 2896 2894 2893 2891 2890 2889 2888 2888 2889 2889 2890 2891 2891 2892 2892 2892 2893 2894 2895 2896 2897 2898 2898 2899 2899 2899 2898
3027 3023 3019 3015 3011 3007 3003 2999 2994 2990 2986 2982 2979 2976 2972 2969 2966 2964 2962 2961 2959 2957 2955 2952 2950 2948 2945 2943 2941 2938 2935 2931 2928 2923 2919 2915 2911 2907 2903 2901 2898 2896 2894 2893 2891 2890 2889 2888 2888 2888 2888 2889 2890 2891 2891 2891 2892 2892 2893 2894 2895 2896 2897 2898 2898 2898 2898 2898 2898
3026 3023 3019 3015 3011 3007 3002 2998 2994 2989 2986 2982 2978 2975 2972 2969 2966 2964 2962 2961 2959 2957 2955 2953 2951 2948 2946 2944 2941 2938 2935 2931 2928 2924 2919 2915 2910 2906 2902 2899 2897 2895 2893 2891 2891 2889 2888 2887 2887 2887 2888 2889 2890 2891 2891 2891 2892 2892 2894 2895 2896 2896 2897 2897 2898 2897 2897 2897 2897
3026 3022 3018 3015 3010 3006 3002 2997 2993 2989 2985 2981 2978 2974 2971 2968 2966 2964 2963 2961 2959 2957 2955 2953 2951 2949 2947 2945 2941 2938 2935 2932 2929 2924 2920 2915 2911 2906 2902 2899 2896 2894 2892 2891 2890 2889 2888 2887 2887 2887 2888 2889 2890 2891 2891 2891 2892 2893 2894 2895 2896 2896 2897 2897 2897 2897 2897 2897 2897
3026 3022 3018 3014 3010 3006 3001 2997 2993 2989 2985 2981 2977 2974 2971 2968 2966 2965 2963 2961 2960 2958 2956 2954 2951 2949 2947 2945 2941 2938 2936 2933 2929 2925 2920 2916 2911 2907 2903 2900 2897 2895 2893 2891 2890 2889 2888 2888 2888 2889 2890 2890 2891 2891 2892 2892 2893 2894 2895 2895 2896 2896 2896 2897 2897 2897 2898 2897 2897
3026 3022 3018 3014 3010 3005 3001 2996 2992 2988 2984 2981 2977 2974 2971 2968 2966 2965 2963 2962 2960 2958 2956 2954 2952 2950 2947 2945 2942 2939 2936 2934 2930 2925 2921 2916 2912 2908 2905 2901 2898 2896 2894 2893 2891 2891 2890 2890 2890 2891 2891 2891 2892 2892 2892 2893 2894 2895 2895 2896 2896 2897 2897 2897 2898 2898 2898 2898 2898
3025 3021 3017 3013 3009 3005 3000 2996 2992 2988 2984 2981 2977 2974 2971 2968 2966 2965 2963 2962 2960 2958 2956 2955 2952 2950 2948 2946 2943 2941 2938 2935 2931 2926 2921 2917 2913 2910 2906 2903 2901 2898 2896 2895 2894 2893 2892 2892 2892 2892 2892 2892 2893 2893 2894 2894 2895 2895 2896 2897 2897 2897 2898 2898 2899 2899 2899 2898 2898
3025 3021 3017 3013 3009 3004 3000 2996 2991 2988 2984 2981 2977 2974 2971 2969 2967 2965 2964 2962 2961 2959 2957 2955 2953 2951 2949 2947 2945 2942 2939 2936 2933 2928 2923 2919 2915 2911 2908 2905 2903 2901 2899 2897 2896 2896 2895 2894 2894 2894 2894 2895 2895 2895 2895 2896 2896 2896 2897 2897 2898 2898 2899 2899 2900 2900 2899 2899 2899
3025 3021 3016 3012 3008 3004 3000 2996 2991 2987 2984 2981 2977 2974 2971 2969 2967 2966 2964 2962 2961 2959 2957 2955 2953 2951 2950 2948 2946 2943 2941 2938 2935 2930 2926 2921 2917 2914 2911 2908 2905 2903 2901 2900 2899 2898 2898 2897 2897 2896 2896 2896 2896 2896 2896 2897 2897 2898 2898 2899 2899 2899 2900 2900 2900 2900 2900 2900 2900
3024 3020 3016 3012 3008 3004 3000 2996 2991 2988 2984 2981 2978 2975 2972 2969 2967 2966 2965 2963 2961 2960 2958 2956 2954 2952 2951 2949 2946 2944 2942 2940 2936 2933 2929 2924 2920 2916 2913 2910 2908 2905 2903 2902 2901 2901 2900 2900 2899 2898 2897 2897 2897 2897 2898 2898 2899 2899 2899 2900 2900 2901 2901 2901 2901 2901 2901 2901 2900
3023 3020 3016 3011 3007 3004 3000 2996 2992 2988 2984 2981 2978 2975 2972 2970 2968 2966 2965 2963 2962 2960 2958 2956 2955 2953 2951 2950 2947 2945 2943 2941 2938 2935 2931 2927 2923 2920 2916 2914 2911 2908 2906 2905 2904 2903 2902 2901 2901 2900 2899 2899 2900 2900 2900 2900 2901 2901 2901 2901 2902 2902 2902 2902 2901 2901 2901 2901 2900
3023 3019 3016 3011 3007 3004 3000 2996 2992 2988 2985 2981 2978 2975 2972 2970 2968 2966 2965 2964 2962 2960 2958 2957 2956 2954 2952 2950 2949 2946 2944 2942 2940 2937 2934 2931 2927 2923 2921 2919 2916 2913 2911 2909 2907 2906 2905 2904 2903 2902 2902 2902 2902 2902 2902 2903 2903 2903 2903 2903 2903 2903 2903 2902 2902 2902 2901 2901 2900
3023 3019 3015 3011 3008 3004 3000 2996 2992 2988 2985 2981 2978 2976 2973 2971 2968 2967 2966 2964 2962 2961 2959 2957 2956 2955 2953 2951 2950 2947 2946 2944 2941 2939 2936 2933 2930 2926 2924 2923 2921 2919 2916 2914 2912 2910 2909 2908 2907 2906 2906 2906 2905 2905 2905 2905 2905 2905 2905 2904 2904 2904 2904 2903 2903 2902 2902 2901 2901
3023 3019 3015 3011 3008 3004 3000 2996 2992 2988 2985 2982 2979 2976 2973 2971 2969 2967 2966 2964 2963 2961 2960 2958 2956 2955 2954 2952 2950 2948 2946 2945 2943 2941 2938 2936 2933 2930 2927 2926 2925 2923 2921 2920 2917 2916 2914 2913 2911 2911 2910 2909 2909 2908 2908 2907 2907 2906 2906 2906 2906 2905 2905 2904 2904 2903 2903 2902 2902
3023 3019 3016 3012 3008 3005 3001 2996 2993 2989 2985 2982 2979 2976 2974 2971 2969 2967 2966 2965 2963 2962 2960 2959 2957 2956 2954 2953 2951 2949 2947 2946 2944 2942 2940 2938 2935 2933 2930 2928 2927 2926 2924 2923 2921 2920 2918 2917 2916 2915 2914 2913 2912 2911 2910 2909 2909 2908 2907 2907 2906 2906 2906 2905 2905 2904 2904 2903 2903
3023 3019 3016 3012 3009 3005 3001 2997 2993 2989 2986 2982 2979 2976 2974 2972 2970 2968 2966 2965 2963 2962 2961 2959 2957 2956 2955 2953 2952 2950 2948 2946 2945 2943 2941 2939 2937 2936 2933 2931 2930 2928 2926 2925 2923 2922 2921 2919 2918 2917 2916 2915 2914 2913 2912 2911 2910 2910 2909 2908 2908 2907 2907 2906 2906 2905 2904 2904 2903
3023 3019 3016 3012 3009 3005 3001 2997 2993 2990 2986 2983 2980 2977 2975 2972 2971 2968 2966 2965 2963 2962 2961 2959 2958 2956 2955 2954 2952 2951 2949 2947 2946 2944 2942 2941 2939 2937 2935 2933 2931 2930 2928 2926 2925 2924 2922 2921 2920 2918 2917 2916 2916 2915 2914 2913 2912 2911 2910 2910 2909 2908 2908 2907 2906 2906 2905 2904 2904
3023 3020 3016 3013 3009 3006 3002 2998 2994 2990 2986 2983 2980 2978 2975 2973 2971 2969 2967 2965 2964 2962 2961 2960 2958 2956 2955 2954 2952 2951 2950 2948 2946 2945 2943 2942 2940 2938 2936 2935 2933 2931 2930 2928 2926 2925 2924 2922 2921 2920 2919 2918 2917 2916 2915 2914 2913 2913 2912 2911 2910 2910 2909 2908 2907 2906 2906 2905 2904
3023 3020 3016 3013 3010 3006 3002 2998 2994 2991 2987 2984 2981 2978 2976 2974 2971 2969 2967 2966 2964 2962 2961 2960 2958 2956 2955 2954 2952 2951 2950 2948 2947 2945 2944 2942 2941 2939 2937 2936 2934 2932 2931 2929 2928 2926 2925 2924 2922 2921 2920 2919 2918 2917 2916 2916 2915 2914 2913 2912 2911 2910 2909 2908 2908 2907 2906 2906 2905
3023 3020 3016 3013 3010 3006 3002 2999 2995 2991 2988 2985 2982 2979 2976 2974 2972 2970 2968 2966 2964 2963 2961 2960 2958 2956 2955 2954 2952 2951 2950 2949 2947 2946 2944 2943 2941 2940 2938 2936 2935 2933 2931 2930 2929 2928 2926 2925 2924 2923 2921 2921 2920 2919 2918 2917 2916 2915 2914 2913 2912 2911 2910 2909 2908 2907 2906 2906 2905
3023 3020 3017 3014 3010 3006 3003 2999 2996 2992 2989 2986 2982 2980 2977 2975 2972 2971 2968 2966 2965 2963 2961 2960 2958 2956 2955 2954 2952 2951 2950 2949 2947 2946 2945 2943 2941 2940 2938 2937 2935 2933 2931 2930 2929 2928 2927 2926 2926 2924 2923 2922 2921 2920 2919 2918 2917 2916 2915 2914 2913 2912 2911 2910 2909 2908 2907 2906 2905
3023 3020 3017 3014 3011 3007 3004 3000 2996 2993 2990 2986 2983 2980 2977 2975 2973 2971 2969 2967 2965 2964 2962 2960 2958 2957 2955 2954 2952 2951 2950 2949 2947 2946 2945 2943 2941 2940 2938 2937 2935 2933 2932 2930 2929 2928 2928 2927 2926 2925 2924 2923 2922 2921 2920 2918 2917 2916 2915 2914 2913 2912 2911 2911 2909 2908 2907 2906 2906
3024 3021 3018 3014 3011 3008 3004 3001 2997 2994 2991 2987 2984 2981 2978 2976 2973 2971 2969 2967 2966 2964 2962 2960 2959 2957 2955 2954 2952 2951 2950 2948 2947 2946 2945 2943 2941 2940 2938 2937 2935 2933 2932 2931 2930 2929 2928 2927 2926 2925 2924 2923 2922 2921 2920 2919 2918 2916 2915 2914 2913 2912 2911 2911 2909 2908 2908 2907 2906
3024 3021 3018 3015 3011 3008 3005 3001 2998 2995 2991 2988 2985 2981 2979 2976 2974 2971 2970 2968 2966 2964 2962 2961 2959 2957 2956 2954 2952 2951 2950 2948 2947 2946 2945 2943 2942 2940 2939 2937 2936 2934 2932 2931 2931 2930 2928 2927 2926 2925 2924 2923 2922 2921 2920 2919 2918 2916 2915 2914 2913 2911 2911 2910 2909 2908 2907 2906 2906
3025 3021 3018 3015 3012 3009 3006 3002 2999 2996 2992 2989 2986 2982 2980 2977 2974 2972 2970 2968 2966 2965 2963 2961 2959 2957 2956 2954 2953 2951 2950 2948 2947 2946 2944 2943 2942 2941 2940 2938 2937 2936 2935 2933 2931 2930 2929 2927 2926 2925 2924 2923 2922 2921 2920 2918 2917 2916 2915 2914 2912 2911 2910 2909 2908 2906 2906 2905 2905
3025 3022 3019 3016 3012 3009 3006 3003 3000 2996 2993 2990 2987 2983 2980 2977 2975 2973 2971 2968 2966 2965 2963 2961 2959 2957 2956 2954 2953 2951 2950 2948 2947 2946 2944 2943 2942 2941 2940 2939 2938 2939 2938 2935 2932 2930 2929 2927 2926 2925 2923 2922 2921 2920 2919 2918 2917 2916 2914 2913 2911 2910 2909 2908 2907 2906 2905 2904 2903
3025 3022 3019 3016 3013 3010 3007 3004 3001 2997 2994 2991 2988 2985 2981 2979 2976 2973 2971 2969 2966 2965 2963 2961 2959 2957 2956 2954 2953 2951 2950 2949 2947 2946 2945 2944 2942 2941 2941 2940 2939 2940 2940 2937 2933 2931 2929 2927 2926 2924 2923 2921 2920 2919 2918 2917 2916 2914 2913 2912 2911 2909 2908 2907 2906 2905 2903 2902 2901
3026 3022 3020 3016 3013 3011 3007 3005 3001 2998 2995 2992 2989 2986 2983 2980 2977 2974 2971 2969 2967 2965 2963 2961 2959 2958 2956 2955 2953 2952 2951 2949 2948 2946 2945 2944 2943 2941 2941 2940 2939 2939 2940 2939 2934 2931 2930 2928 2926 2924 2923 2921 2920 2918 2917 2916 2914 2913 2912 2911 2909 2908 2907 2906 2905 2903 2902 2901 2900
3026 3023 3020 3017 3014 3011 3008 3005 3002 2999 2996 2993 2990 2987 2984 2981 2978 2975 2972 2970 2967 2965 2963 2961 2960 2958 2957 2955 2953 2952 2951 2949 2948 2947 2945 2944 2943 2942 2941 2940 2938 2938 2938 2939 2935 2932 2930 2928 2927 2925 2923 2921 2920 2918 2916 2915 2914 2912 2911 2909 2908 2907 2906 2904 2903 2902 2901 2900 2898
3026 3023 3020 3017 3015 3012 3009 3006 3003 3000 2996 2994 2991 2988 2985 2982 2979 2976 2973 2971 2968 2966 2963 2961 2960 2958 2956 2955 2954 2952 2951 2950 2948 2947 2946 2944 2943 2942 2941 2940 2939 2937 2936 2937 2936 2933 2929 2928 2927 2925 2924 2922 2920 2918 2917 2915 2914 2912 2911 2909 2907 2906 2905 2903 2902 2901 2900 2898 2897
3026 3024 3021 3018 3015 3012 3010 3006 3003 3001 2997 2995 2991 2989 2986 2983 2980 2977 2974 2971 2969 2966 2964 2961 2960 2958 2956 2955 2953 2952 2951 2950 2948 2947 2946 2945 2943 2942 2941 2940 2939 2937 2936 2936 2936 2934 2930 2928 2927 2926 2924 2922 2921 2919 2917 2916 2914 2912 2911 2909 2907 2906 2904 2903 2901 2900 2899 2897 2896
3027 3024 3021 3018 3016 3013 3010 3007 3004 3001 2998 2996 2992 2990 2987 2984 2981 2978 2975 2972 2970 2967 2965 2962 2960 2958 2956 2954 2953 2951 2951 2949 2948 2947 2946 2944 2943 2942 2941 2940 2939 2937 2936 2935 2935 2934 2932 2927 2926 2925 2924 2922 2921 2919 2917 2916 2914 2912 2911 2909 2907 2906 2904 2903 2901 2900 2898 2897 2895
3027 3024 3021 3019 3016 3013 3011 3008 3005 3002 2999 2996 2993 2991 2988 2985 2982 2979 2976 2973 2971 2968 2966 2963 2961 2959 2957 2955 2953 2951 2950 2949 2947 2946 2945 2944 2943 2942 2941 2940 2938 2937 2936 2935 2934 2934 2932 2929 2926 2924 2924 2922 2920 2919 2917 2916 2914 2912 2911 2909 2907 2906 2904 2902 2901 2899 2898 2896 2895
3027 3024 3021 3019 3016 3014 3011 3008 3006 3003 3000 2997 2994 2991 2988 2986 2983 2980 2977 2974 2971 2969 2966 2964 2962 2960 2958 2956 2953 2951 2950 2948 2947 2946 2944 2943 2942 2941 2940 2939 2938 2937 2936 2935 2934 2933 2932 2931 2926 2923 2923 2921 2920 2918 2916 2915 2914 2912 2910 2909 2907 2905 2904 2902 2900 2899 2897 2895 2894
3027 3024 3022 3019 3016 3014 3011 3009 3006 3003 3001 2998 2995 2992 2989 2986 2984 2981 2978 2975 2972 2970 2967 2965 2962 2960 2958 2956 2954 2951 2949 2948 2946 2945 2944 2943 2941 2941 2939 2938 2937 2936 2935 2934 2933 2932 2932 2931 2926 2923 2921 2921 2920 2918 2916 2914 2913 2911 2910 2908 2906 2905 2903 2901 2899 2898 2896 2894 2893
3027 3025 3022 3019 3017 3014 3012 3009 3006 3004 3001 2998 2996 2993 2991 2987 2985 2982 2979 2976 2973 2971 2968 2965 2963 2961 2958 2956 2954 2952 2950 2948 2946 2945 2943 2942 2941 2940 2939 2938 2936 2936 2934 2933 2932 2931 2931 2931 2928 2924 2921 2920 2919 2917 2916 2914 2912 2910 2909 2907 2906 2904 2902 2900 2898 2897 2895 2893 2892
3027 3025 3022 3020 3017 3015 3012 3009 3007 3004 3001 2999 2996 2994 2991 2988 2986 2983 2980 2977 2974 2971 2969 2966 2964 2961 2959 2957 2955 2952 2950 2948 2946 2945 2943 2942 2941 2940 2938 2937 2936 2935 2934 2932 2931 2931 2930 2930 2929 2925 2921 2918 2917 2916 2915 2913 2911 2909 2908 2906 2904 2903 2901 2899 2897 2896 2894 2892 2891
3027 3025 3022 3020 3017 3015 3012 3010 3007 3005 3002 2999 2997 2994 2991 2989 2986 2984 2981 2978 2975 2972 2970 2967 2965 2962 2960 2957 2955 2953 2951 2949 2947 2946 2944 2942 2941 2939 2938 2937 2936 2935 2933 2932 2931 2930 2929 2928 2929 2926 2922 2918 2916 2915 2914 2912 2910 2908 2907 2905 2903 2901 2900 2898 2896 2895 2893 2891 2890
3028 3025 3023 3020 3018 3015 3013 3010 3007 3005 3002 3000 2997 2995 2992 2990 2987 2985 2982 2979 2976 2974 2971 2968 2966 2963 2961 2958 2956 2954 2952 2950 2948 2946 2944 2942 2941 2940 2938 2937 2936 2934 2933 2931 2931 2929 2928 2927 2926 2927 2924 2918 2915 2914 2913 2911 2910 2907 2906 2904 2902 2900 2899 2897 2896 2894 2892 2891 2889